Location: Prague
(50.0830°N, 14.4670°E)
Time: 18:42:39
(UTC+02:00)

ISS - Pass Details

Date: 04 October 2021
Orbit: 417 x 423 km, 51.6° (Epoch: 28 October)

Event Time Altitude Azimuth Distance (km) Brightness Sun altitude
Rises 19:31:38 0° 287° (WNW) 2,366 2.0 -10.1°
Reaches altitude 10° 19:33:51 10° 277° (W) 1,500 0.7 -10.5°
Maximum altitude 19:36:53 31° 213° (SSW) 756 -2.2 -10.9°
Drops below altitude 10° 19:39:54 10° 149° (SSE) 1,496 -1.3 -11.4°
Enters shadow 19:40:15 - 146° (SE) 1,626 -1.2 -11.5°
